TIME,DELAY(SENSOR),PRES,OXYGEN,RAWTEMP,T(OPTODE),TCPHASE,FLUOR,BETA(BETA700),BETA(BETA412),BETA(BETA440),CDOM,C(CSC),ED(ED411.90),ED(ED443.80),ED(ED489.40),ED(ED554.70),LU(LU412.20),LU(LU443.80),LU(LU489.40),LU(LU555.00),COMP,TILTX,TILTY,CHECK
1356472927,5806,843.9799804687500000,159.4579925537109400,425.8434143066406000,9.8134860992431640,39.4355888366699200,52,103,98,79,80,12652,2146966354,2147518208,2147287186,2147501897,2147091922,2146932534,2147704256,2147120045,666,-1,8,53310
1356476523,5806,966.5900268554688000,196.8502960205078000,500.2727966308594000,7.5210289955139160,38.0995216369628900,52,103,98,79,81,12651,2146963017,2147518701,2147295515,2147518418,2147091675,2146921508,2147716288,2147117394,541,-1,8,48924
1356480123,5805,983.7999877929688000,206.3571929931640600,508.5733947753906000,7.2632660865783690,37.6626815795898440,52,119,98,79,82,12648,2146964105,2147518034,2147294921,2147516644,2147089883,2146920429,2147720009,2147117165,2598,-1,9,628
1356483723,5805,986.1799926757812000,207.1401062011718800,510.1419982910156000,7.2144989967346190,37.6437110900878900,51,97,98,78,80,12652,2146964571,2147522486,2147297517,2147519689,2147091620,2146917376,2147721956,2147119140,3546,-1,9,59305
1356487323,5805,986.8699951171875000,208.3916015625000000,512.2727050781250000,7.1482338905334470,37.6070899963378900,51,98,98,79,80,12650,2146963282,2147520246,2147297362,2147519259,2147091986,2146921709,2147718482,2147117705,3064,-1,9,24537
1356490923,5806,988.0100097656250000,211.9199066162109400,514.7335815429688000,7.0716590881347660,37.4431800842285160,51,101,98,79,81,12647,2146963949,2147516352,2147298569,2147519149,2147091017,2146918400,2147720694,2147117632,3437,-1,9,13527
1356494523,5806,994.1599731445312000,211.5511932373047000,514.7523193359375000,7.0710802078247070,37.4647216796875000,52,102,98,79,80,12646,2146963995,2147518857,2147295881,2147519113,2147094427,2146920667,2147719460,2147120146,3453,-1,9,44196
1356498123,5805,995.0499877929688000,211.2910003662109400,514.3032836914062000,7.0850529670715330,37.4723014831543000,52,97,99,78,81,12647,2146964836,2147519524,2147294710,2147517458,2147091538,2146924662,2147721472,2147120064,3028,-1,8,589
1356501723,5809,994.3200073242188000,212.5375976562500000,515.6829223632812000,7.0421099662780760,37.4242897033691400,51,97,98,78,80,12644,2146966016,2147521371,2147294125,2147518134,2147090605,2146919661,2147723392,2147119579,3587,-1,9,9112
1356505323,5806,995.3200073242188000,213.1484985351562500,516.4528198242188000,7.0181431770324710,37.4015007019043000,52,99,97,78,81,12644,2146962514,2147516790,2147298843,2147518838,2147089819,2146918683,2147723446,2147120448,3536,-1,9,49688
1356508923,5806,995.2100219726562000,213.3760986328125000,516.4199218750000000,7.0191640853881840,37.3882484436035160,51,98,99,80,80,12643,2146961051,2147522505,2147297179,2147521161,2147093540,2146918720,2147720950,2147116918,3490,-1,9,42885
1356512523,5806,992.5700073242188000,212.3144073486328000,517.7622070312500000,6.9773640632629395,37.4740104675293000,52,100,100,79,80,12645,2146959826,2147524406,2147299456,2147517705,2147091291,2146925741,2147720795,2147119597,175,-1,8,34471
1356516123,5804,993.8300170898438000,215.1681060791015600,518.2720947265625000,6.9614820480346680,37.3182411193847660,52,98,98,79,81,12643,2146962505,2147519177,2147301074,2147518848,2147091300,2146923145,2147722651,2147120740,360,-1,8,20092
1356519723,5808,990.2700195312500000,215.2353973388672000,518.7012939453125000,6.9481120109558105,37.3215293884277340,51,102,98,79,81,12644,2146962496,2147519213,2147298276,2147519113,2147089691,2146922486,2147721307,2147118043,81,-1,8,16770
1356523323,5805,988.3200073242188000,218.2657012939453000,520.9058837890625000,6.8794140815734860,37.1880302429199200,50,99,98,79,81,12640,2146963401,2147520594,2147300150,2147519990,2147092470,2146927963,2147725037,2147119122,3550,-1,9,10303
1356526923,5806,992.8200073242188000,214.5110931396484400,518.8538208007812000,6.9433588981628420,37.3660812377929700,52,111,99,79,81,12646,2146962660,2147517458,2147299017,2147519963,2147092544,2146925485,2147721590,2147119396,3091,-1,9,59398
1356530523,5805,993.1199951171875000,213.9230957031250000,519.5258178710938000,6.9224238395690920,37.4119300842285160,51,100,97,80,81,12641,2146962806,2147518884,2147297133,2147519680,2147092662,2146922395,2147724763,2147119076,3184,-1,9,34899
1356534123,5807,991.2000122070312000,218.5543060302734400,521.4962768554688000,6.8610091209411620,37.1823501586914060,51,99,96,79,81,12639,2146962340,2147517513,2147298971,2147515739,2147091721,2146923474,2147720219,2147120621,128,-1,8,26953
1356537723,5805,991.5200195312500000,217.8227996826172000,520.7025756835938000,6.8857507705688480,37.2096214294433600,52,97,96,79,81,12640,2146958637,2147516544,2147299931,2147519378,2147089426,2146922989,2147723849,2147122130,3306,-1,9,61780
1356541323,5804,993.1400146484375000,218.0000000000000000,521.0966796875000000,6.8734660148620605,37.2062301635742200,51,100,104,79,80,12637,2146965092,2147521142,2147295460,2147516525,2147090889,2146923062,2147723035,2147120850,187,-1,9,3081
1356544923,5805,994.9099731445312000,218.3222961425781200,521.0294189453125000,6.8755660057067870,37.1870689392089840,51,98,99,79,81,12632,2146961892,2147516562,2147296621,2147520137,2147087963,2146921554,2147721984,2147119058,3197,-1,8,54951
1356548523,5805,998.7500000000000000,217.6166992187500000,520.3358764648438000,6.8971781730651855,37.2148284912109400,52,98,99,80,80,12618,2146964205,2147521481,2147298779,2147518948,2147091721,2146922541,2147723282,2147121252,3221,-1,9,47918
1356552123,5808,997.4299926757812000,215.9553985595703000,519.3234252929688000,6.9287281036376950,37.2911987304687500,51,99,97,79,80,12619,2146963236,2147520009,2147298660,2147518656,2147094080,2146920822,2147720960,2147119076,275,-1,8,52850
1356555723,5808,993.2600097656250000,217.5912933349609400,520.8906860351562000,6.8798880577087400,37.2262496948242200,51,97,97,79,81,12630,2146965531,2147518802,2147299565,2147517558,2147091309,2146926957,2147722843,2147117257,372,-1,8,48719
1356559323,5808,999.0100097656250000,215.6293945312500000,520.0866088867188000,6.9049482345581055,37.3234596252441400,51,99,97,79,81,12636,2146966454,2147519478,2147297782,2147519862,2147090386,2146926537,2147720411,2147118427,3312,-1,8,24334
1356562923,5807,1000.3099975585938000,216.6448974609375000,520.0689697265625000,6.9054951667785645,37.2651405334472660,51,99,97,79,80,12634,2146962203,2147517659,2147294884,2147518957,2147089426,2146920896,2147719808,2147120182,6,-1,8,6845
1356566523,5805,994.4799804687500000,216.7872924804687500,519.9003295898438000,6.9107542037963870,37.2544593811035160,52,99,99,78,80,12633,2146962587,2147520310,2147300004,2147516882,2147095305,2146920100,2147722642,2147120987,2929,-1,9,2596
1356570123,5807,1000.8699951171875000,215.4519958496093800,518.2824707031250000,6.9611568450927730,37.3018608093261700,51,100,98,80,80,12633,2146958710,2147519259,2147298157,2147519378,2147091556,2146920082,2147720512,2147120009,3109,-1,9,49493
1356573723,5808,1004.5200195312500000,215.4053955078125000,518.0264282226562000,6.9691329002380370,37.3001289367675800,51,99,98,78,81,12635,2146960804,2147523264,2147298130,2147517138,2147090285,2146919954,2147716726,2147120676,818,-1,8,23640
1356577323,5805,1001.1300048828125000,214.5859985351562500,518.2470092773438000,6.9622631072998050,37.3506202697753900,52,99,98,80,81,12634,2146964525,2147519817,2147298340,2147516672,2147091529,2146917750,2147721389,2147120036,3214,-1,9,62230
1356580923,5807,1000.2700195312500000,214.5812988281250000,518.6793823242188000,6.9487919807434080,37.3585395812988300,52,99,98,79,81,12629,2146962038,2147519817,2147295341,2147517686,2147093677,2146925083,2147720950,2147119533,3243,-1,8,38415
1356584523,5808,998.8200073242188000,216.4669036865234400,519.9782714843750000,6.9083228111267090,37.2736892700195300,51,99,111,79,80,12627,2146964955,2147521984,2147298541,2147520603,2147090185,2146925312,2147722505,2147122249,142,-1,9,50543
1356588123,5806,996.1400146484375000,215.5382995605468800,520.3942260742188000,6.8953609466552730,37.3341789245605500,50,99,98,77,81,12624,2146962294,2147517156,2147299145,2147521307,2147088640,2146921225,2147724160,2147119945,3513,-1,9,29109
1356591723,5806,999.1500244140625000,215.7519989013672000,520.8612060546875000,6.8808069229125980,37.3303794860839840,52,98,99,79,81,12626,2146963629,2147522267,2147299355,2147522916,2147090130,2146918208,2147722889,2147119881,3312,-1,9,28048
1356595323,5806,996.5499877929688000,217.9705047607422000,521.2062988281250000,6.8700499534606930,37.2102394104003900,51,103,99,79,80,12620,2146965952,2147518610,2147300681,2147517796,2147092489,2146926061,2147721618,2147117476,3416,-1,9,11389
1356598923,5810,997.1900024414062000,218.1251983642578000,521.6674804687500000,6.8556718826293945,37.2101898193359400,51,100,97,78,80,12625,2146962998,2147518948,2147301101,2147520091,2147091099,2146924909,2147723904,2147125184,19,-1,8,42781
1356602523,5803,996.2899780273438000,217.4915008544922000,523.1453247070312000,6.8095951080322270,37.2714805603027340,51,97,99,79,80,12622,2146961810,2147519222,2147299254,2147516818,2147089298,2146924224,2147725238,2147120612,2980,-1,9,18668
1356606123,5804,995.7700195312500000,219.7111968994140600,523.6688842773438000,6.7932648658752440,37.1555290222168000,51,101,98,78,81,12624,2146958518,2147516845,2147300324,2147517046,2147090697,2146919049,2147726838,2147119323,3300,-1,9,18572
1356609723,5805,997.3400268554688000,218.8246002197265600,523.1649169921875000,6.8089838027954100,37.1965599060058600,52,102,98,79,81,12615,2146963693,2147519067,2147295826,2147517348,2147090550,2146918537,2147723501,2147120521,3558,-1,9,5138
1356613323,5805,997.5000000000000000,218.8795928955078000,522.9268188476562000,6.8164091110229490,37.1897888183593750,51,98,97,78,81,12620,2146962861,2147515721,2147299355,2147521389,2147090148,2146924434,2147724406,2147118235,3567,-1,9,58827
1356616923,5808,1000.5800170898438000,217.4120941162109400,522.3613281250000000,6.8340420722961430,37.2625617980957000,52,98,104,80,80,12618,2146964589,2147516434,2147296932,2147520960,2147093540,2146920987,2147724745,2147120256,4,-1,8,18675
1356618355,5806,997.8400268554688000,217.1190948486328000,522.2423706054688000,6.8377490043640140,37.2766418457031250,51,98,97,79,82,12617,2146966491,2147522038,2147297792,2147520539,2147093723,2146920274,2147722770,2147117632,3393,-1,9,1546
